This is the latest recevied weather packets stored in our database for station/object KI5NXU. If no packets are shown the sender has not sent any weather packets the latest 10 day(s).
| Time | Temp. | Humidity | Pressure | Rain* | Wind** | Luminosity | Snow |
|---|---|---|---|---|---|---|---|
| 1787695192 | 39.44° C | 30% | 1012.1 hPa | 0 mm | - | 189 W/m² | - |
| 1787694891 | 39.44° C | 29% | 1012 hPa | 0 mm | - | 172 W/m² | - |
| 1787694587 | 39.44° C | 28% | 1012.2 hPa | 0 mm | - | 177 W/m² | - |
| 1787694286 | 39.44° C | 28% | 1012.4 hPa | 0 mm | - | 191 W/m² | - |
| 1787693982 | 40° C | 28% | 1012.4 hPa | 0 mm | - | 251 W/m² | - |
| 1787693677 | 40° C | 28% | 1012.4 hPa | 0 mm | - | 235 W/m² | - |
| 1787693374 | 40° C | 28% | 1012.6 hPa | 0 mm | - | 224 W/m² | - |
| 1787693070 | 40° C | 28% | 1012.9 hPa | 0 mm | - | 232 W/m² | - |
| 1787692765 | 39.44° C | 28% | 1012.8 hPa | 0 mm | - | 292 W/m² | - |
| 1787692460 | 40° C | 27% | 1012.6 hPa | 0 mm | - | 180 W/m² | - |
| 1787692159 | 40° C | 27% | 1013 hPa | 0 mm | - | 291 W/m² | - |
| 1787691859 | 40.56° C | 27% | 1012.9 hPa | 0 mm | - | 177 W/m² | - |
| 1787691558 | 41.11° C | 26% | 1012.8 hPa | 0 mm | - | 266 W/m² | - |
| 1787691257 | 41.67° C | 26% | 1012.7 hPa | 0 mm | - | 583 W/m² | - |
| 1787690952 | 40.56° C | 26% | 1012.9 hPa | 0 mm | - | 582 W/m² | - |
| 1787690647 | 41.11° C | 26% | 1013.3 hPa | 0 mm | - | 573 W/m² | - |
| 1787690342 | 41.11° C | 27% | 1013.2 hPa | 0 mm | - | 599 W/m² | - |
| 1787690039 | 40.56° C | 27% | 1013.3 hPa | 0 mm | - | 627 W/m² | - |
| 1787689734 | 41.11° C | 27% | 1013.5 hPa | 0 mm | - | 611 W/m² | - |
| 1787689430 | 41.11° C | 24% | 1013.6 hPa | 0 mm | - | 588 W/m² | - |
| 1787689129 | 41.11° C | 24% | 1013.5 hPa | 0 mm | - | 626 W/m² | - |
| 1787688826 | 40.56° C | 26% | 1013.5 hPa | 0 mm | - | 619 W/m² | - |
| 1787688521 | 40.56° C | 25% | 1013.6 hPa | 0 mm | - | 626 W/m² | - |
| 1787688221 | 40.56° C | 26% | 1013.4 hPa | 0 mm | - | 619 W/m² | - |
| 1787687916 | 40.56° C | 26% | 1013.7 hPa | 0 mm | - | 623 W/m² | - |
* Rain latest hour (hover to see other rain measurements)
** Current wind speed in m/s (hover to see current wind gust speed)